Location: Oak Glen
(34.0495°N, 116.9470°E)
Time: 01:02:23
(UTC-07:00)

Vanguard 2 - Visible Passes

Search period start: 23 October 2017 00:00
Search period end: 02 November 2017 00:00
Orbit: 553 x 2939 km, 32.9° (Epoch: 22 October)

Date Brightness Start Highest point End Pass type
(mag) Time Alt. Az. Time Alt. Az. Time Alt. Az.
23 Oct 11.8 12:28:49 10° S 12:39:55 20° SE 12:50:26 10° E visible
23 Oct 11.0 14:34:47 10° SW 14:51:20 48° SSE 15:04:19 10° E visible
24 Oct 11.6 12:44:30 10° S 12:57:56 27° SE 13:10:28 10° E visible
24 Oct 10.8 14:52:21 10° SW 15:09:34 57° SSE 15:22:46 10° E visible
25 Oct 11.3 13:00:59 10° SSW 13:15:57 35° SE 13:29:45 10° E visible
26 Oct 11.7 11:14:20 10° SSE 11:23:04 16° SE 11:32:03 10° ESE visible
26 Oct 11.1 13:17:58 10° SSW 13:34:01 44° SSE 13:48:36 10° E visible
27 Oct 11.5 11:32:10 15° S 11:40:54 23° SE 11:52:59 10° E visible
27 Oct 10.8 13:35:21 10° SW 13:52:08 53° SSE 14:07:13 10° E visible
28 Oct 11.3 11:50:14 21° S 11:58:44 31° SE 12:12:44 10° E visible
28 Oct 10.7 13:53:02 10° SW 14:10:20 62° SSE 14:25:40 10° E visible
29 Oct 11.8 10:06:39 11° SE 10:06:39 11° SE 10:10:31 10° ESE visible
29 Oct 11.0 12:08:09 26° S 12:16:36 39° SE 12:31:53 10° E visible
29 Oct 10.6 14:10:58 10° WSW 14:28:37 70° SSE 14:44:02 10° E visible
30 Oct 11.5 10:24:27 18° SE 10:24:27 18° SE 10:33:57 10° E visible
30 Oct 10.8 12:25:56 30° SSW 12:34:33 48° SSE 12:50:41 10° E visible
30 Oct 10.5 14:29:06 10° WSW 14:46:59 77° SSE 15:02:23 10° E visible
31 Oct 11.3 10:42:08 25° SE 10:42:08 25° SE 10:54:30 10° E visible
31 Oct 10.6 12:43:37 32° SSW 12:52:36 57° SSE 13:09:17 10° E visible
31 Oct 10.5 14:47:24 10° WSW 15:05:27 82° S 15:20:42 10° E visible
01 Nov 11.0 10:59:43 33° SE 10:59:43 33° SE 11:14:05 10° E visible
01 Nov 10.5 13:01:10 33° SW 13:10:46 65° SSE 13:27:47 10° E visible
01 Nov 10.5 15:05:48 10° W 15:23:58 85° S 15:39:01 10° E visible
